Theta_e
296 295 291 293 293 293 291 289 289 293 296 294 294 294 296 299 299 299 300 300 301 302 306 307 313 317 316 318 321 326 353 353 349 347 346 347 348 351 350 350 350 349 347 347
294 291 294 295 294 292 292 290 290 293 294 294 294 293 296 298 299 302 305 306 307 308 311 314 316 318 319 319 320 325 352 354 350 348 347 351 348 348 350 349 350 351 348 348
291 292 295 293 292 291 291 290 290 289 294 295 292 291 293 297 302 304 304 305 305 306 307 309 311 315 317 319 320 318 351 353 350 350 348 350 350 348 345 346 346 349 348 347
292 294 293 292 291 292 288 293 292 291 290 286 293 284 292 295 298 300 301 301 302 304 305 306 308 311 314 319 322 320 339 351 348 349 345 345 343 341 342 343 345 347 349 346
291 293 292 290 291 294 291 295 293 292 289 288 288 286 290 296 295 298 300 301 301 302 303 303 305 307 310 318 320 323 330 348 352 349 345 344 346 347 346 344 344 345 349 349
294 297 294 293 295 295 295 293 291 289 288 284 286 287 288 292 294 296 298 299 299 300 301 303 305 308 309 316 317 320 327 345 348 347 344 344 346 345 342 341 340 342 343 345
292 293 294 296 293 295 294 292 285 284 284 283 288 287 290 295 295 296 296 297 298 299 299 301 302 304 306 310 313 316 325 336 346 346 344 346 347 349 348 344 341 340 340 342
286 285 292 295 293 290 291 291 285 277 280 283 290 284 291 299 297 297 298 298 298 298 299 299 302 302 304 305 309 312 315 317 336 346 345 346 350 347 345 346 342 341 341 344
287 287 295 296 296 295 291 289 293 285 286 281 287 289 295 298 296 296 297 298 297 298 298 299 301 301 302 303 305 308 312 311 314 320 346 345 345 347 345 348 348 346 348 344
292 285 293 294 296 297 293 296 287 288 279 278 285 286 288 293 292 293 294 295 296 298 298 299 300 301 301 302 304 307 310 310 311 313 320 341 344 343 343 347 344 346 348 347
295 290 289 293 291 290 291 291 290 288 286 281 280 286 295 293 292 292 293 295 296 297 297 298 299 301 302 302 302 304 307 310 311 311 313 319 339 343 345 344 344 346 349 348
296 292 286 288 294 296 294 291 290 283 283 286 285 284 297 296 295 295 294 296 296 297 297 298 299 300 300 301 301 302 305 306 310 311 313 316 321 345 346 347 347 348 346 346
296 290 284 287 291 294 291 293 292 291 288 283 280 286 298 298 296 295 294 294 295 296 296 296 297 297 299 300 300 301 303 305 308 310 311 314 317 324 345 348 347 349 349 347
299 293 288 285 288 291 287 291 292 289 284 285 285 288 293 294 293 292 294 294 295 295 295 295 296 296 297 299 300 300 302 304 306 308 310 312 314 318 322 346 349 348 349 349
298 289 292 292 291 291 290 290 291 289 289 284 287 288 292 294 292 294 294 294 295 294 295 295 295 295 296 297 298 300 301 303 305 306 308 310 313 318 323 332 346 349 350 350
297 290 292 289 292 292 290 291 291 290 289 289 290 289 295 296 296 295 294 293 293 293 294 295 295 295 296 296 297 299 300 302 304 305 308 310 312 316 321 330 340 345 348 348
295 292 287 285 290 289 285 289 290 290 292 291 285 292 295 292 292 292 293 294 292 293 294 295 294 295 296 297 298 298 300 302 303 304 307 309 311 314 318 325 330 340 343 346
294 291 289 286 288 280 289 295 294 291 292 294 294 294 294 292 292 295 297 294 293 294 294 294 294 295 297 298 299 301 301 302 302 303 305 309 311 314 317 322 328 334 340 341
296 293 287 284 282 288 289 291 290 287 288 294 292 294 294 293 292 295 297 296 295 296 296 296 296 296 297 298 299 300 300 301 301 303 305 308 311 313 316 320 327 333 335 336
294 295 289 284 281 280 289 295 296 293 283 295 295 292 292 291 285 291 296 296 297 297 296 296 296 296 297 297 299 299 299 301 301 303 305 309 311 313 315 318 324 331 334 334
288 288 285 284 283 288 294 295 295 284 289 296 296 294 292 289 292 295 297 297 297 297 296 296 296 294 296 298 299 298 299 300 303 305 308 310 313 315 317 320 323 329 330 332
288 285 284 285 283 280 296 293 288 296 296 297 296 296 294 294 295 295 296 295 296 295 295 295 294 294 296 298 298 298 298 302 304 305 308 310 315 318 320 321 321 327 329 329
289 293 288 290 290 296 298 299 301 299 298 298 296 296 295 295 295 296 295 295 295 295 294 295 294 294 296 297 299 296 298 301 303 306 309 314 320 320 324 323 321 323 328 327
293 296 293 292 297 295 297 300 300 300 299 299 299 299 297 294 296 295 295 294 294 295 293 294 293 293 293 296 298 297 298 300 303 306 308 310 316 316 314 313 316 326 327 326
294 295 294 294 297 297 299 300 301 300 299 298 300 299 298 296 295 295 294 293 294 294 293 293 292 292 293 295 297 297 297 298 299 303 304 305 305 306 302 298 297 303 310 312
293 293 291 292 298 298 298 299 299 299 298 299 299 298 298 296 295 293 292 293 294 293 292 291 292 292 293 294 295 297 297 298 297 297 299 300 304 305 304 303 302 293 292 294
Wind_Speed
3 2 3 6 5 8 9 10 14 15 13 15 21 23 23 17 15 16 18 19 20 20 21 21 21 20 18 15 12 15 20 21 14 13 13 14 14 13 13 12 15 15 13 14
1 1 2 6 2 1 5 11 14 9 7 16 19 27 18 8 9 11 15 17 18 19 17 18 21 21 19 18 16 16 21 21 18 15 13 12 12 12 13 12 13 16 17 17
3 4 3 2 3 6 7 9 13 18 20 16 10 14 1 4 7 12 15 16 17 19 21 21 23 22 22 20 18 16 17 22 20 20 12 10 9 6 10 13 11 15 17 18
0 2 3 2 3 8 10 4 14 19 16 9 7 9 6 6 9 14 16 19 19 21 21 20 22 24 23 22 19 17 15 19 18 17 14 20 15 15 13 11 12 13 18 17
2 4 4 1 1 6 8 14 16 16 11 8 1 7 4 9 8 15 18 21 21 21 22 23 23 24 24 21 20 17 14 16 18 17 14 16 19 14 11 10 13 14 14 17
3 2 2 1 6 3 11 11 2 3 2 3 3 6 10 5 6 13 19 22 21 23 24 22 21 22 23 20 20 19 13 16 16 16 19 18 20 14 13 14 12 11 10 11
5 1 1 1 7 1 13 10 5 3 2 4 1 11 9 1 6 11 15 19 20 20 21 23 23 22 23 25 22 20 17 11 17 16 15 16 20 19 17 16 12 11 11 11
5 4 1 2 4 5 4 5 3 6 5 12 15 7 3 9 4 8 13 16 18 20 21 21 22 21 21 23 23 21 20 17 10 17 19 21 21 15 14 15 13 12 11 12
4 4 2 7 2 3 3 2 2 4 8 7 4 5 8 7 6 14 18 20 21 21 21 23 23 20 20 20 22 20 19 16 15 17 14 15 13 14 13 11 13 11 12 11
3 6 1 1 2 3 3 2 3 1 6 7 6 14 10 5 12 14 18 19 21 20 22 21 19 22 20 19 19 19 18 16 14 15 14 10 16 13 10 10 13 12 11 13
4 4 2 7 4 3 2 3 2 3 4 5 9 6 3 1 7 13 16 18 20 20 20 20 22 21 21 20 18 17 17 18 13 13 12 12 8 16 13 13 14 14 14 15
7 4 5 8 11 9 8 5 4 3 3 6 8 14 8 2 6 13 16 18 19 19 20 19 22 21 22 21 20 19 15 15 15 14 11 10 12 13 15 14 15 15 15 14
8 4 5 3 3 3 5 8 8 7 6 8 6 8 8 8 16 14 16 19 18 18 19 19 22 20 22 22 21 19 16 14 14 15 14 14 11 12 15 14 14 15 15 15
9 7 9 8 9 8 13 17 14 9 6 13 18 28 24 21 17 17 20 18 18 18 17 17 17 19 20 20 20 19 18 15 14 13 13 12 12 10 10 13 15 15 15 15
9 8 14 18 19 18 20 21 18 19 18 13 20 22 23 21 13 18 17 17 19 20 20 16 18 18 18 18 20 19 18 17 17 15 14 13 13 12 9 8 13 16 16 16
6 5 6 9 16 18 21 19 18 20 19 17 19 23 6 11 15 18 17 17 18 19 21 16 22 19 19 17 16 19 19 18 17 16 15 13 13 12 11 8 8 12 14 17
7 5 3 7 4 14 14 7 8 5 7 10 12 16 15 15 15 18 18 16 16 19 21 16 18 17 16 16 15 16 19 18 17 16 15 14 14 13 10 10 9 10 14 15
8 6 3 6 9 5 3 4 7 10 13 14 16 17 12 12 14 18 15 10 15 18 19 16 15 16 17 16 15 13 15 16 16 16 14 13 12 14 10 11 8 9 9 13
13 8 3 4 4 13 7 6 6 6 9 10 12 12 9 11 14 12 7 13 15 17 15 15 14 16 17 16 15 13 13 14 15 16 14 13 12 13 11 11 9 7 7 8
11 9 5 4 4 6 2 6 5 4 8 8 9 8 9 7 6 10 13 14 17 16 14 15 16 16 15 16 14 13 12 12 14 14 15 13 12 13 12 10 12 5 6 8
6 5 11 9 8 9 5 11 7 4 4 8 8 8 7 7 7 13 14 16 17 14 16 17 14 14 15 16 14 13 11 11 12 14 16 15 13 12 12 11 11 6 6 6
11 10 6 5 7 12 14 9 7 1 3 5 7 7 9 10 11 12 14 16 17 16 17 15 14 15 15 14 13 13 12 9 10 11 13 16 15 10 8 10 7 9 8 7
8 7 7 10 7 1 16 6 10 4 6 6 6 6 7 10 12 13 13 15 15 15 14 14 14 15 15 14 12 12 12 11 10 9 11 14 12 9 8 7 8 7 7 6
7 8 5 4 7 13 12 14 10 9 9 6 7 7 6 9 12 12 11 12 12 12 13 13 15 15 16 16 13 12 13 12 9 6 4 5 1 1 3 3 4 5 6 7
2 8 9 8 11 9 13 12 9 7 7 7 8 8 7 7 10 11 10 11 10 10 11 12 14 14 16 16 14 15 15 14 10 8 6 8 6 4 4 5 5 4 3 3
8 10 8 6 7 4 3 3 3 8 8 8 7 6 4 5 8 9 9 8 9 10 10 12 14 14 15 15 14 14 14 13 11 8 8 8 3 2 2 2 2 12 9 7
Wind_Direction
47 314 95 339 296 282 290 285 302 304 307 319 303 301 307 312 306 317 331 330 317 306 309 307 316 314 311 304 300 255 211 204 187 193 195 192 192 186 192 200 200 198 195 195
306 171 116 332 309 355 312 308 314 299 301 313 307 298 311 319 7 18 7 360 355 345 336 334 332 326 325 314 309 276 219 200 191 192 201 201 196 191 192 193 201 204 203 197
275 100 338 325 136 347 321 300 314 300 315 291 299 289 67 55 25 23 11 356 353 347 338 337 334 332 333 325 317 306 230 203 196 196 182 190 184 174 195 196 192 204 203 202
240 102 353 336 162 348 314 277 298 303 321 313 15 292 310 354 353 17 7 359 352 346 340 334 334 335 335 337 326 314 252 208 199 193 184 187 190 190 200 191 190 193 204 207
66 330 353 283 345 327 299 310 290 300 287 290 77 254 320 348 354 3 356 354 354 348 337 334 335 331 333 338 338 330 272 209 196 186 193 195 200 207 191 190 189 194 190 204
316 332 221 309 302 304 319 287 309 190 218 267 59 325 294 346 359 350 349 353 355 345 335 331 334 332 337 340 348 344 311 221 199 188 191 191 207 196 185 186 191 189 184 195
325 113 148 231 314 346 350 350 350 325 313 285 146 303 278 24 47 7 348 346 346 342 337 331 337 340 335 341 351 354 353 263 210 197 200 205 211 208 198 180 186 178 189 196
351 160 360 28 332 321 354 349 34 304 299 301 296 241 333 147 77 11 3 351 344 344 339 331 335 334 331 335 342 352 356 355 275 205 202 206 207 207 200 194 187 187 192 194
328 258 272 329 324 273 106 305 356 248 263 274 236 258 187 187 343 360 354 349 351 343 338 331 331 332 333 337 334 342 350 356 353 344 211 207 208 214 218 203 198 186 189 189
177 289 256 300 225 102 287 68 247 156 293 286 259 284 261 283 343 339 347 343 341 338 335 331 332 333 333 336 328 337 341 353 348 350 348 228 213 202 207 200 199 195 190 191
169 215 238 306 196 263 201 199 170 245 247 285 301 294 125 350 335 333 335 335 336 334 333 332 332 330 328 329 332 335 336 341 349 349 343 337 260 209 202 202 198 195 188 189
195 192 275 283 309 270 243 241 179 245 243 241 285 283 124 91 345 339 335 327 331 328 327 329 326 327 329 326 332 331 329 333 340 343 334 335 335 219 203 206 200 196 194 197
167 190 297 252 156 149 214 212 226 244 250 231 266 273 173 261 347 338 327 327 325 320 328 332 329 326 326 324 325 323 330 325 332 335 338 338 341 339 209 207 202 198 199 197
176 203 218 250 287 294 276 272 264 234 237 275 255 282 298 324 331 327 335 328 322 321 321 323 323 324 323 320 319 320 312 328 322 324 328 327 333 332 324 218 205 204 199 197
199 238 235 247 258 259 259 273 269 251 251 251 286 288 301 318 320 322 322 327 323 330 323 319 329 323 320 320 318 315 317 317 318 319 320 324 326 327 316 296 209 208 207 203
187 252 245 265 262 264 271 269 264 262 261 259 263 274 304 311 312 317 318 323 324 325 327 323 327 318 317 315 312 311 307 309 308 309 307 312 318 317 318 308 261 200 208 210
186 222 239 270 339 300 277 259 213 203 229 245 263 285 310 307 313 315 314 314 320 317 318 323 321 314 309 305 300 295 300 301 297 299 295 304 306 306 305 304 283 229 206 200
189 193 216 289 315 253 83 206 215 234 257 257 262 281 288 295 304 304 303 320 316 315 319 318 317 308 308 306 301 294 287 287 286 280 284 282 291 290 300 293 287 241 210 201
214 182 218 259 251 288 280 214 214 204 279 263 249 259 276 296 304 298 351 328 315 320 319 315 319 313 308 307 306 299 287 279 274 274 279 277 277 281 293 291 292 248 209 193
189 219 205 162 263 260 207 167 120 99 271 199 217 255 282 303 281 303 338 319 323 324 324 320 319 312 308 310 305 299 289 272 269 266 266 266 263 261 266 275 275 259 228 198
160 186 219 232 244 270 236 143 136 245 351 188 216 263 269 267 267 302 309 319 329 331 325 325 322 314 312 311 307 304 295 278 261 262 263 263 258 255 255 259 257 264 233 208
176 180 194 192 234 257 139 132 202 309 192 238 241 259 274 279 293 300 316 325 330 336 327 328 325 320 317 319 315 316 307 299 289 273 261 258 258 248 245 248 248 238 211 207
207 198 182 206 211 185 189 212 210 207 273 264 252 257 282 291 304 312 321 326 330 337 330 329 326 322 325 327 326 321 320 320 316 282 253 244 247 249 253 254 244 237 204 205
223 191 232 189 224 226 223 234 250 239 250 252 252 258 270 291 303 310 320 327 328 339 334 331 331 332 331 336 338 338 336 336 332 336 336 326 354 74 25 11 332 248 212 198
194 166 214 246 267 257 252 241 259 236 227 236 249 259 277 293 302 314 320 325 328 338 337 335 332 335 334 335 341 348 351 352 359 357 16 30 15 5 69 61 13 343 24 298
188 209 206 224 193 251 242 131 182 211 218 229 242 260 275 299 309 318 321 326 327 342 339 338 334 333 337 338 344 355 356 355 354 1 15 20 344 350 50 105 128 46 33 19